Location: Burera
(21.3780°N, 81.9534°E)
Time: 12:00:29
(UTC+00:00)

ATLAS 5 CENTAUR R/B - Pass Details

Date: 13 August 2020
Orbit: 533 x 1125 km, 63.4° (Epoch: 19 September)

Event Time Altitude Azimuth Distance (km) Brightness Sun altitude
Rises 15:55:04 0° 310° (NW) 3,654 6.5 -36.6°
Reaches altitude 10° 15:58:13 10° 295° (WNW) 2,794 5.6 -37.1°
Maximum altitude 16:02:59 21° 249° (WSW) 2,203 4.5 -38.0°
Enters shadow 16:03:48 20° 240° (WSW) 2,237 4.5 -38.1°
